This is the latest recevied weather packets stored in our database for station/object OE6JUE. If no packets are shown the sender has not sent any weather packets the latest 10 day(s).
| Time | Temp. | Humidity | Pressure | Rain* | Wind** | Luminosity | Snow |
|---|---|---|---|---|---|---|---|
| 1777753006 | 12.22° C | 60% | 1021.6 hPa | 0 mm | - | - | - |
| 1777752707 | 12.78° C | 56% | 1021.7 hPa | 0 mm | - | - | - |
| 1777752407 | 12.78° C | 56% | 1021.6 hPa | 0 mm | - | - | - |
| 1777752106 | 12.78° C | 56% | 1021.7 hPa | - | - | - | - |
| 1777751806 | 12.78° C | 56% | 1021.5 hPa | 0 mm | - | - | - |
| 1777751507 | 13.33° C | 55% | 1021.4 hPa | 0 mm | - | - | - |
| 1777751206 | 13.33° C | 56% | 1021.4 hPa | 0 mm | - | - | - |
| 1777750906 | 12.78° C | 55% | 1021.4 hPa | 0 mm | - | - | - |
| 1777750606 | 12.78° C | 54% | 1021.3 hPa | 0 mm | - | - | - |
| 1777750307 | 13.33° C | 53% | 1021.4 hPa | 0 mm | - | - | - |
| 1777750006 | 13.33° C | 52% | 1021.3 hPa | 0 mm | - | - | - |
| 1777749706 | 13.33° C | 52% | 1021.2 hPa | 0 mm | - | - | - |
| 1777749407 | 13.89° C | 52% | 1021.1 hPa | 0 mm | - | - | - |
| 1777749106 | 13.89° C | 50% | 1021.2 hPa | 0 mm | - | - | - |
| 1777748806 | 14.44° C | 50% | 1021.3 hPa | 0 mm | - | - | - |
| 1777748507 | 14.44° C | 50% | 1021.1 hPa | - | - | - | - |
| 1777748207 | 15° C | 50% | 1021.1 hPa | 0 mm | - | - | - |
| 1777747906 | 15° C | 49% | 1020.9 hPa | 0 mm | - | - | - |
| 1777747606 | 15.56° C | 47% | 1021 hPa | 0 mm | - | - | - |
| 1777747306 | 16.11° C | 46% | 1020.8 hPa | 0 mm | - | - | - |
| 1777747006 | 16.67° C | 46% | 1020.9 hPa | 0 mm | - | - | - |
| 1777746707 | 16.67° C | 45% | 1020.8 hPa | 0 mm | - | - | - |
| 1777746407 | 17.22° C | 44% | 1020.7 hPa | 0 mm | - | - | - |
| 1777746106 | 17.78° C | 40% | 1020.7 hPa | 0 mm | - | - | - |
| 1777745806 | 18.33° C | 40% | 1020.6 hPa | 0 mm | - | - | - |
* Rain latest hour (hover to see other rain measurements)
** Current wind speed in m/s (hover to see current wind gust speed)